Location: Condor
(52.3263°N, 114.5541°W)
Time: 09:34:02
(UTC+00:00)

VELOX 1 - Visible Passes

Search period start: 08 December 2023 00:00
Search period end: 18 December 2023 00:00
Orbit: 610 x 625 km, 98.4° (Epoch: 07 December)

Date Brightness Start Highest point End Pass type
(mag) Time Alt. Az. Time Alt. Az. Time Alt. Az.
08 Dec ? 12:37:29 10° ESE 12:40:31 19° ENE 12:43:34 10° NNE visible
08 Dec ? 14:11:53 10° S 14:16:07 65° WSW 14:20:25 10° NNW visible
09 Dec ? 12:53:24 10° ESE 12:56:55 25° ENE 13:00:27 10° N visible
09 Dec ? 14:28:37 10° S 14:32:44 46° W 14:36:54 10° NNW visible
10 Dec ? 13:09:29 10° SE 13:13:21 34° ENE 13:17:14 10° N visible
10 Dec ? 14:45:31 10° SSW 14:49:22 32° W 14:53:16 10° NNW visible
11 Dec ? 13:25:43 10° SE 13:29:48 46° ENE 13:33:56 10° N visible
12 Dec ? 12:09:39 10° ENE 12:11:05 11° NE 12:12:30 10° NNE visible
12 Dec ? 13:42:03 10° SSE 13:46:18 65° ENE 13:50:33 10° N visible
13 Dec ? 12:24:55 10° E 12:27:22 15° NE 12:29:51 10° NNE visible
13 Dec ? 13:58:31 10° SSE 14:02:48 89° WSW 14:07:08 10° NNW visible
14 Dec ? 12:40:36 10° ESE 12:43:42 20° ENE 12:46:50 10° NNE visible
14 Dec ? 14:15:06 10° S 14:19:20 63° WSW 14:23:37 10° NNW visible
15 Dec ? 12:56:31 10° ESE 13:00:04 26° ENE 13:03:40 10° N visible
15 Dec ? 14:31:49 10° S 14:35:54 44° W 14:40:03 10° NNW visible
16 Dec ? 13:12:34 10° SE 13:16:28 35° ENE 13:20:23 10° N visible
16 Dec ? 14:48:41 10° SSW 14:52:30 31° W 14:56:23 10° NNW visible
17 Dec ? 13:28:46 10° SE 13:32:53 48° ENE 13:37:02 10° N visible
